Theta_e
313 313 313 313 313 314 314 315 316 318 317 318 320 322 323 326 328 330 330 330 329 329 330 331 332 336 335 338 338 339 334 332 332 334 334 334 334 336 337 335 336 339 342 340 341
312 312 312 312 313 313 314 314 315 317 317 318 319 321 323 327 330 331 330 329 329 329 329 328 331 335 337 337 337 335 331 329 332 334 333 334 337 338 336 334 341 341 341 339 338
312 312 312 312 313 313 314 314 315 317 318 319 319 320 324 328 329 331 330 329 331 329 330 330 332 335 336 336 337 333 329 329 333 337 336 335 337 339 334 334 340 341 341 339 338
311 312 312 312 312 313 314 314 315 317 318 318 319 320 323 326 329 331 331 332 329 329 331 331 331 334 335 335 337 336 335 336 336 336 336 337 341 341 338 338 335 340 340 336 336
311 311 312 312 312 313 314 314 315 317 318 318 319 320 323 326 329 333 331 332 329 332 329 330 330 331 333 335 336 334 335 336 337 337 339 341 341 341 340 337 336 337 335 335 336
311 311 312 312 312 313 314 315 316 317 318 317 319 320 321 326 332 333 331 332 330 330 330 329 329 330 333 336 335 336 335 335 338 337 336 338 338 343 342 340 336 336 336 336 336
311 311 312 312 313 314 314 316 317 318 318 317 319 319 322 330 331 331 333 333 332 332 331 329 328 328 330 336 337 336 335 334 336 338 337 337 337 337 342 341 340 337 337 337 336
312 312 312 312 313 314 317 318 319 321 319 318 319 318 324 330 330 331 332 332 333 332 331 330 330 330 329 336 336 336 335 337 335 337 338 337 343 342 341 341 341 342 340 337 337
312 312 312 313 313 317 321 323 323 321 319 319 318 318 325 330 330 330 330 332 332 332 331 331 331 331 330 329 329 332 335 338 339 338 341 341 344 343 341 337 337 339 342 341 339
313 313 313 313 314 320 320 320 325 321 322 320 322 326 329 330 330 330 330 332 332 331 331 331 330 326 323 326 330 334 335 336 336 341 339 340 343 341 336 338 335 337 341 340 339
313 313 313 313 315 319 320 319 320 322 321 320 323 324 327 328 329 330 331 331 331 331 328 329 327 328 328 327 330 334 333 336 338 339 341 340 339 340 339 341 342 339 340 336 337
312 313 313 313 318 320 321 319 318 320 321 322 322 324 326 326 326 329 329 329 330 329 328 326 328 328 328 329 332 334 335 339 338 338 337 340 340 338 336 337 335 339 336 337 338
311 313 314 314 317 318 320 319 318 318 321 322 323 324 326 327 328 329 329 329 329 328 328 328 328 329 328 327 330 332 332 334 337 338 338 338 341 337 336 337 338 338 338 338 336
311 311 314 313 314 314 320 319 318 319 321 324 324 325 326 326 328 329 329 329 329 328 327 328 328 328 327 327 328 329 332 336 337 334 339 336 340 339 338 342 338 338 338 338 337
311 311 313 313 313 316 318 318 320 321 330 328 325 325 326 326 328 328 329 329 328 328 328 327 327 327 328 327 328 328 334 335 336 336 335 340 339 341 338 342 339 337 338 338 339
311 311 312 314 314 318 315 318 323 325 332 325 325 323 323 325 327 328 328 329 329 327 327 327 329 329 327 327 327 329 333 330 331 332 337 338 341 341 340 340 340 336 334 337 342
311 312 312 315 315 316 318 324 324 330 331 322 321 321 321 323 324 326 329 327 326 327 327 326 327 328 329 329 327 328 329 332 333 335 339 336 337 337 336 339 337 336 335 337 342
312 312 314 316 319 318 322 324 332 332 332 326 322 320 321 323 324 326 328 327 327 327 326 327 327 328 330 332 328 332 330 330 337 337 336 337 342 339 336 337 337 336 335 335 338
312 313 316 317 321 319 322 326 329 332 330 328 325 321 321 321 325 325 326 327 326 325 327 328 329 328 333 333 332 334 332 330 332 333 336 338 339 337 335 337 336 338 338 335 338
311 313 322 321 321 318 320 323 328 331 328 327 330 329 323 320 322 323 325 327 328 328 327 328 328 329 334 332 331 332 332 330 329 336 342 340 341 336 339 339 339 338 339 338 336
310 313 322 323 322 320 316 321 325 326 326 327 330 330 331 325 321 322 325 327 329 329 327 326 325 327 333 333 332 330 331 332 330 333 338 343 339 333 337 337 333 335 337 335 335
310 315 323 323 321 319 317 322 325 326 329 328 327 330 334 334 325 323 326 328 330 329 331 332 327 329 332 332 331 333 335 331 330 337 335 336 337 336 337 337 336 335 337 337 335
310 314 324 324 317 316 319 323 326 328 329 329 331 331 332 331 328 331 333 332 330 330 330 332 329 338 336 331 329 334 333 332 330 328 333 335 337 335 336 336 336 334 336 336 334
309 317 324 323 323 320 320 321 327 325 329 328 329 330 331 334 332 337 337 333 333 332 335 335 333 336 335 333 331 335 333 331 328 330 334 336 338 338 336 334 336 336 337 335 335
311 318 322 322 324 325 326 323 325 327 330 330 328 332 335 335 335 337 338 335 335 332 333 336 337 335 334 334 335 334 332 332 332 334 339 338 337 335 333 333 337 338 336 337 337
313 321 320 321 321 324 325 328 328 329 330 328 331 333 335 337 336 334 338 333 332 331 330 331 332 335 331 335 335 334 334 334 334 334 337 337 340 335 336 338 337 337 337 337 337
318 317 319 321 322 320 321 324 328 327 326 328 334 334 335 336 335 335 335 334 334 332 329 333 335 333 334 336 335 334 337 335 336 342 340 342 339 335 334 335 335 337 337 336 336
Wind_Speed
23 22 21 20 19 17 16 14 13 13 12 9 6 7 7 8 10 11 12 7 8 8 8 6 5 6 6 4 8 9 2 4 8 6 5 11 5 10 12 14 5 7 15 20 23
22 22 22 21 19 18 16 15 13 11 11 9 6 6 7 8 10 14 8 10 6 9 9 10 13 16 8 2 4 3 5 6 8 6 7 10 12 14 12 12 11 16 21 24 26
20 22 23 22 19 18 16 14 12 11 10 9 6 5 6 7 10 6 3 1 3 8 7 8 9 13 4 10 1 1 1 6 5 6 8 21 10 12 23 6 27 30 29 24 25
22 20 22 22 20 17 16 14 12 10 10 9 6 4 5 5 1 7 3 3 3 8 7 10 9 9 7 6 8 2 13 12 11 13 7 4 11 14 5 5 23 25 25 19 23
23 23 21 22 21 18 17 14 11 9 10 8 5 3 3 4 7 6 5 1 4 3 10 14 16 8 6 2 5 5 5 3 10 10 12 15 23 16 30 10 19 22 19 16 18
22 23 23 21 22 19 16 13 10 10 10 8 5 2 4 4 3 5 5 2 4 7 10 13 15 4 9 2 3 9 1 7 11 13 16 13 13 23 20 13 10 21 19 15 16
23 23 23 22 21 19 16 12 11 10 10 7 4 4 7 10 0 6 8 4 7 12 17 18 20 21 4 2 10 4 5 13 11 1 6 16 7 7 11 6 4 5 18 15 17
23 23 23 22 20 18 14 14 12 9 6 4 4 4 7 7 8 11 7 8 9 15 19 20 19 22 3 5 3 4 5 3 8 4 11 3 4 5 12 11 12 11 19 16 20
23 24 23 21 20 16 14 14 8 5 1 1 2 4 5 5 8 9 12 9 11 14 16 21 12 11 8 6 4 3 3 3 4 3 6 9 2 19 20 16 6 16 13 20 15
22 23 22 20 16 14 18 14 5 4 9 2 6 2 7 11 10 7 10 9 12 15 18 9 8 4 5 4 5 7 3 2 4 4 19 16 13 10 7 12 18 15 11 19 17
22 23 21 18 10 12 16 22 18 2 24 10 5 12 18 9 9 9 8 9 9 13 5 6 6 6 14 7 7 5 0 7 2 10 7 9 4 4 9 13 8 18 8 12 16
22 22 21 16 5 8 12 18 20 13 10 12 14 16 12 9 12 9 8 5 5 6 6 7 3 7 12 14 6 6 9 4 3 2 6 4 6 4 6 1 11 18 8 17 21
21 22 21 15 6 8 9 16 15 17 4 11 11 11 7 3 6 8 3 7 7 4 2 2 8 12 8 10 5 1 7 6 6 4 5 7 2 3 3 7 5 9 21 22 16
21 21 21 19 4 12 5 11 9 15 4 6 7 7 11 6 5 15 9 9 2 6 2 4 8 7 13 6 1 1 4 9 11 4 3 1 2 7 5 8 5 14 16 10 5
20 20 19 19 17 9 11 13 7 5 3 4 6 7 14 11 2 3 7 11 9 2 4 6 7 11 11 6 2 8 4 10 5 5 6 4 6 7 7 5 5 21 16 15 7
20 19 22 19 15 7 16 16 4 5 1 2 8 6 6 15 9 4 4 4 2 1 3 5 6 4 5 10 6 5 8 8 5 3 4 2 7 5 4 1 6 21 23 14 13
20 18 20 17 12 9 10 6 5 3 5 4 5 5 7 5 4 2 2 2 2 4 5 7 6 6 3 8 7 6 6 4 5 5 2 3 5 5 4 5 15 19 27 11 15
20 19 18 12 3 5 7 4 4 4 4 2 3 4 8 6 6 3 3 1 3 4 1 2 9 5 6 4 4 4 7 5 3 2 2 6 2 2 7 17 25 31 31 29 14
20 17 13 4 2 6 4 4 5 4 8 6 5 4 3 5 6 6 7 6 7 8 7 4 6 3 5 1 2 3 5 2 6 4 4 3 1 5 7 10 20 21 16 23 12
21 20 2 5 1 2 4 4 4 5 10 4 3 2 3 6 7 8 7 6 8 10 10 5 2 3 4 5 4 5 2 4 3 3 2 4 4 3 8 12 9 17 23 24 19
15 11 6 3 1 1 2 6 6 19 16 7 1 3 6 5 10 7 8 8 6 5 14 5 4 6 2 1 3 4 2 6 4 4 5 4 5 7 8 10 7 18 16 12 20
8 4 9 8 1 1 2 4 10 17 31 7 3 2 3 2 4 8 7 6 8 9 3 1 5 1 5 4 5 3 3 5 5 2 2 4 5 6 9 12 11 16 13 15 21
10 7 6 8 1 2 7 6 7 5 8 4 4 2 4 5 5 3 2 0 7 4 6 3 2 3 10 6 6 3 2 2 4 3 3 5 5 2 7 15 18 21 28 20 15
5 3 4 10 6 2 4 6 5 16 11 5 5 4 5 7 7 3 7 9 10 10 4 3 4 6 5 7 4 3 9 5 6 4 2 2 2 5 4 7 15 18 17 9 4
2 4 6 3 2 5 3 4 7 4 7 14 4 2 2 4 3 4 6 7 9 11 4 4 3 3 4 6 3 2 9 13 13 2 6 3 2 5 5 6 4 21 17 10 9
3 5 9 11 13 5 2 3 3 2 1 9 4 5 6 4 4 5 3 3 3 4 4 5 1 3 6 4 3 2 6 5 4 5 8 8 1 3 4 13 17 17 15 15 15
3 3 4 7 8 3 2 6 7 9 10 6 6 4 6 2 3 4 6 5 5 1 2 3 2 3 3 3 1 3 2 4 4 7 6 4 3 1 5 13 15 14 14 15 17
Wind_Direction
349 351 348 349 348 349 349 346 345 349 350 344 325 300 292 292 297 290 282 299 318 329 328 313 350 10 278 264 202 205 79 235 187 174 201 169 138 177 131 144 154 184 167 158 166
349 347 346 347 348 346 345 344 339 341 345 342 323 297 291 297 298 288 292 288 311 302 317 331 351 353 337 289 232 185 144 241 192 165 167 194 176 160 138 125 114 120 142 148 162
352 346 343 345 347 342 341 340 337 332 339 336 324 306 290 302 314 307 248 147 325 295 317 332 338 336 289 327 26 287 112 270 19 196 134 185 209 157 146 161 155 147 152 156 166
349 350 342 341 343 341 335 335 333 325 328 329 330 309 291 301 276 359 348 90 310 319 344 334 321 319 336 332 329 339 40 20 344 344 11 109 62 65 112 169 171 163 161 163 174
346 347 347 339 341 338 332 330 328 320 316 319 324 310 283 277 268 313 267 314 335 332 349 331 322 289 272 349 7 39 336 345 24 355 88 84 51 76 45 53 164 160 165 170 175
345 344 345 342 338 336 332 324 321 314 307 307 301 283 249 261 260 4 255 260 310 321 322 322 304 303 281 338 131 220 308 359 61 99 77 80 49 82 42 358 156 173 182 187 198
345 344 345 344 337 334 329 321 316 307 301 290 277 258 240 234 17 316 312 303 317 316 311 310 307 299 258 172 190 38 27 341 86 73 119 91 31 61 35 30 102 245 198 210 214
343 345 345 343 339 336 335 331 315 310 297 261 277 250 245 231 267 266 289 311 323 318 315 336 319 304 232 207 351 40 45 51 350 344 39 357 339 211 352 18 39 320 309 243 221
344 345 345 345 344 345 353 347 349 319 325 268 222 205 252 220 247 267 269 285 310 307 312 317 324 307 246 148 20 329 232 121 323 64 119 109 347 325 342 17 11 351 309 307 281
344 344 346 347 347 356 17 10 48 71 25 337 191 222 230 224 250 278 229 250 286 304 313 336 341 336 13 97 231 263 281 174 173 72 105 114 178 170 96 301 291 306 273 289 328
343 343 345 350 351 352 22 37 30 1 328 268 226 285 281 310 287 296 194 221 271 288 323 357 6 324 306 246 190 209 72 132 96 127 73 135 115 302 151 245 289 271 241 278 335
342 341 343 354 336 355 14 26 21 347 308 285 255 256 270 294 292 255 205 235 253 285 352 8 303 277 340 356 173 107 119 119 92 65 77 210 161 251 102 271 322 280 316 299 303
341 340 343 356 327 344 43 17 11 348 301 288 230 235 215 208 243 227 242 295 229 286 332 174 270 321 5 353 37 45 145 188 144 133 71 156 72 65 26 167 349 301 305 302 284
337 339 341 348 335 336 351 335 332 347 53 274 193 230 212 209 263 250 259 276 241 237 274 274 303 342 336 332 298 336 194 111 131 123 113 147 343 2 310 328 30 288 320 310 205
332 336 332 336 325 331 326 323 336 340 58 158 179 201 188 185 189 236 303 249 214 278 84 263 315 323 323 265 8 240 46 128 115 95 107 334 69 292 321 347 278 291 315 335 197
326 331 323 329 327 319 324 335 346 39 352 220 164 172 138 208 239 251 317 50 106 43 330 241 286 232 234 290 251 193 84 43 56 75 58 214 128 281 256 266 309 265 278 302 196
319 322 315 316 323 334 325 339 43 103 323 194 186 146 173 196 255 205 282 13 113 15 339 332 284 289 331 347 308 95 59 12 15 20 187 330 87 213 220 184 222 255 275 281 201
316 317 310 311 10 357 355 48 60 259 292 2 141 105 175 171 238 225 128 194 257 121 111 260 333 26 319 95 261 89 135 145 184 178 180 356 144 204 216 213 240 246 248 263 249
319 318 313 148 74 15 346 63 219 279 324 11 45 89 255 218 168 186 194 211 226 172 169 180 264 351 51 11 44 344 44 141 101 61 77 274 353 327 278 251 257 261 261 254 266
324 327 98 157 120 349 62 238 258 276 320 28 79 140 259 241 162 162 195 223 241 198 165 251 317 315 318 57 7 106 165 35 18 104 141 308 292 222 255 264 258 262 256 263 266
323 321 164 172 181 180 170 242 292 304 341 332 303 299 258 223 199 184 212 254 213 263 163 169 118 295 16 305 200 330 55 53 109 135 145 168 255 226 236 224 249 232 220 260 207
311 308 170 201 300 76 223 226 320 304 316 269 268 251 280 262 234 191 210 232 215 169 111 14 131 50 266 314 229 149 181 137 117 236 199 149 258 233 245 257 263 263 268 287 220
320 279 200 215 177 300 296 293 274 299 301 331 296 31 287 348 39 45 170 339 95 86 146 183 15 26 342 353 6 12 237 180 115 84 189 120 256 238 261 280 281 276 281 296 226
323 340 316 212 249 108 312 284 309 320 303 258 265 358 10 42 13 30 13 20 44 30 71 98 107 141 183 234 213 354 31 75 135 91 244 21 23 339 284 270 298 302 276 267 232
335 288 356 305 325 318 251 278 297 313 330 349 308 40 360 31 45 29 41 3 45 9 37 88 111 130 220 40 43 26 93 77 62 269 110 267 354 293 264 248 183 64 87 55 3
348 356 345 302 295 298 229 248 266 308 271 314 15 309 81 127 173 201 140 111 233 341 50 0 354 47 354 64 17 104 64 89 122 174 114 130 171 274 76 82 57 52 44 35 29
344 304 318 290 324 348 10 312 321 353 303 310 280 96 73 337 57 2 338 130 169 57 65 54 64 67 277 8 36 339 16 18 331 35 125 152 188 71 50 70 53 43 42 20 1